Year,Month,Day,Hour,Minute,Value (Times are PST for temperature in C)
2007,07,10,00,00,16.90
2007,07,10,00,01,16.90
2007,07,10,00,02,16.90
2007,07,10,00,03,16.80
2007,07,10,00,04,16.80
2007,07,10,00,05,16.80
2007,07,10,00,06,16.80
2007,07,10,00,07,16.80
2007,07,10,00,08,16.80
2007,07,10,00,09,16.80
2007,07,10,00,10,16.80
2007,07,10,00,11,16.80
2007,07,10,00,12,16.80
2007,07,10,00,13,16.80
2007,07,10,00,14,16.80
2007,07,10,00,15,16.80
2007,07,10,00,16,16.80
2007,07,10,00,17,16.80
2007,07,10,00,18,16.80
2007,07,10,00,19,16.70
2007,07,10,00,20,16.70
2007,07,10,00,21,16.70
2007,07,10,00,22,16.60
2007,07,10,00,23,16.50
2007,07,10,00,24,16.40
2007,07,10,00,25,16.40
2007,07,10,00,26,16.40
2007,07,10,00,27,16.40
2007,07,10,00,28,16.30
2007,07,10,00,29,16.30
2007,07,10,00,30,16.30
2007,07,10,00,31,16.30
2007,07,10,00,32,16.20
2007,07,10,00,33,16.20
2007,07,10,00,34,16.20
2007,07,10,00,35,16.20
2007,07,10,00,36,16.20
2007,07,10,00,37,16.20
2007,07,10,00,38,16.10
2007,07,10,00,39,16.10
2007,07,10,00,40,16.10
2007,07,10,00,41,16.10
2007,07,10,00,42,16.10
2007,07,10,00,43,16.10
2007,07,10,00,44,16.10
2007,07,10,00,45,16.10
2007,07,10,00,46,16.10
2007,07,10,00,47,16.10
2007,07,10,00,48,16.10
2007,07,10,00,49,16.10
2007,07,10,00,50,16.10
2007,07,10,00,51,16.10
2007,07,10,00,52,16.10
2007,07,10,00,53,16.10
2007,07,10,00,54,16.10
2007,07,10,00,55,16.10
2007,07,10,00,56,16.10
2007,07,10,00,57,16.10
2007,07,10,00,58,16.10
2007,07,10,00,59,16.10
2007,07,10,01,00,16.10
2007,07,10,01,01,16.10
2007,07,10,01,02,16.10
2007,07,10,01,03,16.10
2007,07,10,01,04,16.10
2007,07,10,01,05,16.00
2007,07,10,01,06,15.90
2007,07,10,01,07,15.90
2007,07,10,01,08,15.90
2007,07,10,01,09,15.90
2007,07,10,01,10,15.80
2007,07,10,01,11,15.80
2007,07,10,01,12,15.80
2007,07,10,01,13,15.80
2007,07,10,01,14,15.80
2007,07,10,01,15,15.80
2007,07,10,01,16,15.80
2007,07,10,01,17,15.80
2007,07,10,01,18,15.70
2007,07,10,01,19,15.70
2007,07,10,01,20,15.70
2007,07,10,01,21,15.70
2007,07,10,01,22,15.60
2007,07,10,01,23,15.60
2007,07,10,01,24,15.60
2007,07,10,01,25,15.60
2007,07,10,01,26,15.60
2007,07,10,01,27,15.60
2007,07,10,01,28,15.60
2007,07,10,01,29,15.60
2007,07,10,01,30,15.60
2007,07,10,01,31,15.50
2007,07,10,01,32,15.50
2007,07,10,01,33,15.50
2007,07,10,01,34,15.50
2007,07,10,01,35,15.50
2007,07,10,01,36,15.40
2007,07,10,01,37,15.40
2007,07,10,01,38,15.40
2007,07,10,01,39,15.40
2007,07,10,01,40,15.30
2007,07,10,01,41,15.30
2007,07,10,01,42,15.30
2007,07,10,01,43,15.30
2007,07,10,01,44,15.30
2007,07,10,01,45,15.30
2007,07,10,01,46,15.30
2007,07,10,01,47,15.20
2007,07,10,01,48,15.20
2007,07,10,01,49,15.20
2007,07,10,01,50,15.10
2007,07,10,01,51,15.10
2007,07,10,01,52,15.10
2007,07,10,01,53,15.10
2007,07,10,01,54,15.10
2007,07,10,01,55,15.00
2007,07,10,01,56,15.00
2007,07,10,01,57,15.00
2007,07,10,01,58,15.00
2007,07,10,01,59,14.90
2007,07,10,02,00,14.90
2007,07,10,02,01,14.90
2007,07,10,02,02,14.90
2007,07,10,02,03,14.90
2007,07,10,02,04,14.90
2007,07,10,02,05,14.80
2007,07,10,02,06,14.80
2007,07,10,02,07,14.80
2007,07,10,02,08,14.80
2007,07,10,02,09,14.80
2007,07,10,02,10,14.80
2007,07,10,02,11,14.80
2007,07,10,02,12,14.70
2007,07,10,02,13,14.70
2007,07,10,02,14,14.70
2007,07,10,02,15,14.60
2007,07,10,02,16,14.60
2007,07,10,02,17,14.60
2007,07,10,02,18,14.60
2007,07,10,02,19,14.60
2007,07,10,02,20,14.60
2007,07,10,02,21,14.50
2007,07,10,02,22,14.50
2007,07,10,02,23,14.50
2007,07,10,02,24,14.50
2007,07,10,02,25,14.50
2007,07,10,02,26,14.50
2007,07,10,02,27,14.50
2007,07,10,02,28,14.40
2007,07,10,02,29,14.40
2007,07,10,02,30,14.40
2007,07,10,02,31,14.40
2007,07,10,02,32,14.40
2007,07,10,02,33,14.40
2007,07,10,02,34,14.30
2007,07,10,02,35,14.30
2007,07,10,02,36,14.30
2007,07,10,02,37,14.30
2007,07,10,02,38,14.30
2007,07,10,02,39,14.30
2007,07,10,02,40,14.30
2007,07,10,02,41,14.30
2007,07,10,02,42,14.30
2007,07,10,02,43,14.30
2007,07,10,02,44,14.20
2007,07,10,02,45,14.20
2007,07,10,02,46,14.20
2007,07,10,02,47,14.20
2007,07,10,02,48,14.20
2007,07,10,02,49,14.20
2007,07,10,02,50,14.20
2007,07,10,02,51,14.20
2007,07,10,02,52,14.20
2007,07,10,02,53,14.20
2007,07,10,02,54,14.10
2007,07,10,02,55,14.10
2007,07,10,02,56,14.10
2007,07,10,02,57,14.10
2007,07,10,02,58,14.10
2007,07,10,02,59,14.00
2007,07,10,03,00,14.00
2007,07,10,03,01,14.00
2007,07,10,03,02,14.00
2007,07,10,03,03,14.00
2007,07,10,03,04,13.90
2007,07,10,03,05,13.90
2007,07,10,03,06,13.90
2007,07,10,03,07,13.90
2007,07,10,03,08,13.90
2007,07,10,03,09,13.90
2007,07,10,03,10,13.90
2007,07,10,03,11,13.90
2007,07,10,03,12,13.90
2007,07,10,03,13,13.80
2007,07,10,03,14,13.80
2007,07,10,03,15,13.80
2007,07,10,03,16,13.90
2007,07,10,03,17,13.90
2007,07,10,03,18,13.90
2007,07,10,03,19,13.90
2007,07,10,03,20,13.90
2007,07,10,03,21,13.80
2007,07,10,03,22,13.80
2007,07,10,03,23,13.80
2007,07,10,03,24,13.80
2007,07,10,03,25,13.80
2007,07,10,03,26,13.80
2007,07,10,03,27,13.70
2007,07,10,03,28,13.70
2007,07,10,03,29,13.70
2007,07,10,03,30,13.70
2007,07,10,03,31,13.70
2007,07,10,03,32,13.70
2007,07,10,03,33,13.70
2007,07,10,03,34,13.70
2007,07,10,03,35,13.70
2007,07,10,03,36,13.70
2007,07,10,03,37,13.70
2007,07,10,03,38,13.70
2007,07,10,03,39,13.80
2007,07,10,03,40,13.80
2007,07,10,03,41,13.80
2007,07,10,03,42,13.80
2007,07,10,03,43,13.80
2007,07,10,03,44,13.80
2007,07,10,03,45,13.80
2007,07,10,03,46,13.80
2007,07,10,03,47,13.80
2007,07,10,03,48,13.80
2007,07,10,03,49,13.80
2007,07,10,03,50,13.80
2007,07,10,03,51,13.70
2007,07,10,03,52,13.80
2007,07,10,03,53,13.80
2007,07,10,03,54,13.80
2007,07,10,03,55,13.80
2007,07,10,03,56,13.80
2007,07,10,03,57,13.90
2007,07,10,03,58,14.00
2007,07,10,03,59,14.00
2007,07,10,04,00,14.00
2007,07,10,04,01,14.00
2007,07,10,04,02,14.00
2007,07,10,04,03,14.10
2007,07,10,04,04,14.20
2007,07,10,04,05,14.20
2007,07,10,04,06,14.20
2007,07,10,04,07,14.20
2007,07,10,04,08,14.20
2007,07,10,04,09,14.20
2007,07,10,04,10,14.20
2007,07,10,04,11,14.20
2007,07,10,04,12,14.20
2007,07,10,04,13,14.20
2007,07,10,04,14,14.20
2007,07,10,04,15,14.20
2007,07,10,04,16,14.20
2007,07,10,04,17,14.20
2007,07,10,04,18,14.20
2007,07,10,04,19,14.20
2007,07,10,04,20,14.20
2007,07,10,04,21,14.20
2007,07,10,04,22,14.20
2007,07,10,04,23,14.20
2007,07,10,04,24,14.20
2007,07,10,04,25,14.10
2007,07,10,04,26,14.10
2007,07,10,04,27,14.10
2007,07,10,04,28,14.10
2007,07,10,04,29,14.10
2007,07,10,04,30,14.00
2007,07,10,04,31,14.00
2007,07,10,04,32,14.00
2007,07,10,04,33,14.00
2007,07,10,04,34,14.00
2007,07,10,04,35,13.90
2007,07,10,04,36,13.90
2007,07,10,04,37,13.90
2007,07,10,04,38,13.80
2007,07,10,04,39,13.80
2007,07,10,04,40,13.80
2007,07,10,04,41,13.80
2007,07,10,04,42,13.80
2007,07,10,04,43,13.70
2007,07,10,04,44,13.70
2007,07,10,04,45,13.70
2007,07,10,04,46,13.70
2007,07,10,04,47,13.70
2007,07,10,04,48,13.70
2007,07,10,04,49,13.70
2007,07,10,04,50,13.70
2007,07,10,04,51,13.70
2007,07,10,04,52,13.70
2007,07,10,04,53,13.70
2007,07,10,04,54,13.70
2007,07,10,04,55,13.60
2007,07,10,04,56,13.60
2007,07,10,04,57,13.60
2007,07,10,04,58,13.60
2007,07,10,04,59,13.60
2007,07,10,05,00,13.60
2007,07,10,05,01,13.60
2007,07,10,05,02,13.60
2007,07,10,05,03,13.60
2007,07,10,05,04,13.50
2007,07,10,05,05,13.50
2007,07,10,05,06,13.50
2007,07,10,05,07,13.50
2007,07,10,05,08,13.40
2007,07,10,05,09,13.40
2007,07,10,05,10,13.40
2007,07,10,05,11,13.40
2007,07,10,05,12,13.40
2007,07,10,05,13,13.40
2007,07,10,05,14,13.40
2007,07,10,05,15,13.40
2007,07,10,05,16,13.40
2007,07,10,05,17,13.40
2007,07,10,05,18,13.40
2007,07,10,05,19,13.40
2007,07,10,05,20,13.40
2007,07,10,05,21,13.30
2007,07,10,05,22,13.30
2007,07,10,05,23,13.30
2007,07,10,05,24,13.30
2007,07,10,05,25,13.30
2007,07,10,05,26,13.30
2007,07,10,05,27,13.30
2007,07,10,05,28,13.30
2007,07,10,05,29,13.30
2007,07,10,05,30,13.30
2007,07,10,05,31,13.20
2007,07,10,05,32,13.20
2007,07,10,05,33,13.20
2007,07,10,05,34,13.20
2007,07,10,05,35,13.20
2007,07,10,05,36,13.20
2007,07,10,05,37,13.20
2007,07,10,05,38,13.20
2007,07,10,05,39,13.20
2007,07,10,05,40,13.20
2007,07,10,05,41,13.30
2007,07,10,05,42,13.30
2007,07,10,05,43,13.30
2007,07,10,05,44,13.30
2007,07,10,05,45,13.30
2007,07,10,05,46,13.30
2007,07,10,05,47,13.30
2007,07,10,05,48,13.30
2007,07,10,05,49,13.30
2007,07,10,05,50,13.30
2007,07,10,05,51,13.30
2007,07,10,05,52,13.30
2007,07,10,05,53,13.30
2007,07,10,05,54,13.40
2007,07,10,05,55,13.40
2007,07,10,05,56,13.40
2007,07,10,05,57,13.40
2007,07,10,05,58,13.40
2007,07,10,05,59,13.50
2007,07,10,06,00,13.50
2007,07,10,06,01,13.50
2007,07,10,06,02,13.60
2007,07,10,06,03,13.60
2007,07,10,06,04,13.60
2007,07,10,06,05,13.70
2007,07,10,06,06,13.70
2007,07,10,06,07,13.70
2007,07,10,06,08,13.70
2007,07,10,06,09,13.70
2007,07,10,06,10,13.80
2007,07,10,06,11,13.80
2007,07,10,06,12,13.80
2007,07,10,06,13,13.80
2007,07,10,06,14,13.90
2007,07,10,06,15,13.90
2007,07,10,06,16,13.90
2007,07,10,06,17,14.00
2007,07,10,06,18,14.00
2007,07,10,06,19,14.10
2007,07,10,06,20,14.10
2007,07,10,06,21,14.20
2007,07,10,06,22,14.20
2007,07,10,06,23,14.30
2007,07,10,06,24,14.40
2007,07,10,06,25,14.40
2007,07,10,06,26,14.40
2007,07,10,06,27,14.50
2007,07,10,06,28,14.50
2007,07,10,06,29,14.50
2007,07,10,06,30,14.60
2007,07,10,06,31,14.70
2007,07,10,06,32,14.70
2007,07,10,06,33,14.80
2007,07,10,06,34,14.80
2007,07,10,06,35,14.80
2007,07,10,06,36,14.90
2007,07,10,06,37,14.90
2007,07,10,06,38,14.90
2007,07,10,06,39,14.90
2007,07,10,06,40,15.00
2007,07,10,06,41,15.00
2007,07,10,06,42,15.10
2007,07,10,06,43,15.10
2007,07,10,06,44,15.20
2007,07,10,06,45,15.20
2007,07,10,06,46,15.30
2007,07,10,06,47,15.30
2007,07,10,06,48,15.30
2007,07,10,06,49,15.40
2007,07,10,06,50,15.40
2007,07,10,06,51,15.50
2007,07,10,06,52,15.50
2007,07,10,06,53,15.60
2007,07,10,06,54,15.70
2007,07,10,06,55,15.80
2007,07,10,06,56,15.90
2007,07,10,06,57,16.10
2007,07,10,06,58,16.20
2007,07,10,06,59,16.30
2007,07,10,07,00,16.40
2007,07,10,07,01,16.50
2007,07,10,07,02,16.60
2007,07,10,07,03,16.70
2007,07,10,07,04,16.80
2007,07,10,07,05,16.90
2007,07,10,07,06,17.00
2007,07,10,07,07,17.10
2007,07,10,07,08,17.20
2007,07,10,07,09,17.30
2007,07,10,07,10,17.30
2007,07,10,07,11,17.30
2007,07,10,07,12,17.30
2007,07,10,07,13,17.40
2007,07,10,07,14,17.60
2007,07,10,07,15,17.70
2007,07,10,07,16,17.80
2007,07,10,07,17,17.90
2007,07,10,07,18,18.00
2007,07,10,07,19,18.10
2007,07,10,07,20,18.20
2007,07,10,07,21,18.30
2007,07,10,07,22,18.40
2007,07,10,07,23,18.50
2007,07,10,07,24,18.50
2007,07,10,07,25,18.60
2007,07,10,07,26,18.70
2007,07,10,07,27,18.90
2007,07,10,07,28,18.90
2007,07,10,07,29,19.00
2007,07,10,07,30,19.10
2007,07,10,07,31,19.10
2007,07,10,07,32,19.30
2007,07,10,07,33,19.30
2007,07,10,07,34,19.40
2007,07,10,07,35,19.40
2007,07,10,07,36,19.50
2007,07,10,07,37,19.50
2007,07,10,07,38,19.60
2007,07,10,07,39,19.70
2007,07,10,07,40,19.80
2007,07,10,07,41,19.90
2007,07,10,07,42,20.00
2007,07,10,07,43,20.10
2007,07,10,07,44,20.10
2007,07,10,07,45,20.20
2007,07,10,07,46,20.20
2007,07,10,07,47,20.20
2007,07,10,07,48,20.20
2007,07,10,07,49,20.20
2007,07,10,07,50,20.20
2007,07,10,07,51,20.30
2007,07,10,07,52,20.30
2007,07,10,07,53,20.40
2007,07,10,07,54,20.50
2007,07,10,07,55,20.60
2007,07,10,07,56,20.70
2007,07,10,07,57,20.80
2007,07,10,07,58,21.00
2007,07,10,07,59,21.00
2007,07,10,08,00,21.20
2007,07,10,08,01,21.20
2007,07,10,08,02,21.30
2007,07,10,08,03,21.40
2007,07,10,08,04,21.50
2007,07,10,08,05,21.60
2007,07,10,08,06,21.70
2007,07,10,08,07,21.80
2007,07,10,08,08,21.90
2007,07,10,08,09,21.90
2007,07,10,08,10,21.90
2007,07,10,08,11,21.80
2007,07,10,08,12,21.80
2007,07,10,08,13,21.80
2007,07,10,08,14,21.90
2007,07,10,08,15,21.90
2007,07,10,08,16,21.80
2007,07,10,08,17,21.70
2007,07,10,08,18,21.60
2007,07,10,08,19,21.50
2007,07,10,08,20,21.40
2007,07,10,08,21,21.30
2007,07,10,08,22,21.30
2007,07,10,08,23,21.30
2007,07,10,08,24,21.30
2007,07,10,08,25,21.30
2007,07,10,08,26,21.40
2007,07,10,08,27,21.50
2007,07,10,08,28,21.60
2007,07,10,08,29,21.70
2007,07,10,08,30,21.90
2007,07,10,08,31,21.90
2007,07,10,08,32,22.00
2007,07,10,08,33,22.10
2007,07,10,08,34,22.20
2007,07,10,08,35,22.20
2007,07,10,08,36,22.30
2007,07,10,08,37,22.40
2007,07,10,08,38,22.50
2007,07,10,08,39,22.60
2007,07,10,08,40,22.70
2007,07,10,08,41,22.80
2007,07,10,08,42,22.90
2007,07,10,08,43,23.00
2007,07,10,08,44,23.20
2007,07,10,08,45,23.30
2007,07,10,08,46,23.50
2007,07,10,08,47,23.70
2007,07,10,08,48,23.80
2007,07,10,08,49,23.90
2007,07,10,08,50,24.10
2007,07,10,08,51,24.10
2007,07,10,08,52,24.30
2007,07,10,08,53,24.30
2007,07,10,08,54,24.40
2007,07,10,08,55,24.30
2007,07,10,08,56,24.10
2007,07,10,08,57,24.00
2007,07,10,08,58,23.80
2007,07,10,08,59,23.70
2007,07,10,09,00,23.70
2007,07,10,09,01,23.60
2007,07,10,09,02,23.60
2007,07,10,09,03,23.40
2007,07,10,09,04,23.40
2007,07,10,09,05,23.40
2007,07,10,09,06,23.30
2007,07,10,09,07,23.30
2007,07,10,09,08,23.30
2007,07,10,09,09,23.30
2007,07,10,09,10,23.20
2007,07,10,09,11,23.20
2007,07,10,09,12,23.10
2007,07,10,09,13,23.10
2007,07,10,09,14,23.10
2007,07,10,09,15,23.10
2007,07,10,09,16,23.10
2007,07,10,09,17,22.90
2007,07,10,09,18,22.80
2007,07,10,09,19,22.80
2007,07,10,09,20,22.70
2007,07,10,09,21,22.60
2007,07,10,09,22,22.60
2007,07,10,09,23,22.50
2007,07,10,09,24,22.50
2007,07,10,09,25,22.50
2007,07,10,09,26,22.50
2007,07,10,09,27,22.60
2007,07,10,09,28,22.70
2007,07,10,09,29,22.70
2007,07,10,09,30,22.70
2007,07,10,09,31,22.60
2007,07,10,09,32,22.60
2007,07,10,09,33,22.40
2007,07,10,09,34,22.30
2007,07,10,09,35,22.20
2007,07,10,09,36,22.10
2007,07,10,09,37,22.00
2007,07,10,09,38,22.00
2007,07,10,09,39,21.90
2007,07,10,09,40,21.90
2007,07,10,09,41,22.00
2007,07,10,09,42,22.00
2007,07,10,09,43,22.10
2007,07,10,09,44,22.10
2007,07,10,09,45,22.10
2007,07,10,09,46,22.20
2007,07,10,09,47,22.30
2007,07,10,09,48,22.20
2007,07,10,09,49,22.10
2007,07,10,09,50,22.10
2007,07,10,09,51,22.00
2007,07,10,09,52,21.90
2007,07,10,09,53,21.90
2007,07,10,09,54,21.80
2007,07,10,09,55,21.70
2007,07,10,09,56,21.80
2007,07,10,09,57,22.00
2007,07,10,09,58,22.00
2007,07,10,09,59,22.20
2007,07,10,10,00,22.30
2007,07,10,10,01,22.40
2007,07,10,10,02,22.50
2007,07,10,10,03,22.60
2007,07,10,10,04,22.70
2007,07,10,10,05,22.80
2007,07,10,10,06,22.70
2007,07,10,10,07,22.70
2007,07,10,10,08,22.50
2007,07,10,10,09,22.40
2007,07,10,10,10,22.30
2007,07,10,10,11,22.30
2007,07,10,10,12,22.30
2007,07,10,10,13,22.40
2007,07,10,10,14,22.50
2007,07,10,10,15,22.60
2007,07,10,10,16,22.70
2007,07,10,10,17,22.70
2007,07,10,10,18,22.70
2007,07,10,10,19,22.80
2007,07,10,10,20,22.80
2007,07,10,10,21,22.90
2007,07,10,10,22,23.00
2007,07,10,10,23,23.10
2007,07,10,10,24,23.20
2007,07,10,10,25,23.30
2007,07,10,10,26,23.40
2007,07,10,10,27,23.50
2007,07,10,10,28,23.60
2007,07,10,10,29,23.60
2007,07,10,10,30,23.70
2007,07,10,10,31,23.70
2007,07,10,10,32,23.70
2007,07,10,10,33,23.70
2007,07,10,10,34,23.80
2007,07,10,10,35,23.90
2007,07,10,10,36,23.90
2007,07,10,10,37,23.90
2007,07,10,10,38,23.90
2007,07,10,10,39,23.90
2007,07,10,10,40,24.10
2007,07,10,10,41,24.20
2007,07,10,10,42,24.40
2007,07,10,10,43,24.40
2007,07,10,10,44,24.40
2007,07,10,10,45,24.50
2007,07,10,10,46,24.60
2007,07,10,10,47,24.60
2007,07,10,10,48,24.60
2007,07,10,10,49,24.60
2007,07,10,10,50,24.60
2007,07,10,10,51,24.60
2007,07,10,10,52,24.70
2007,07,10,10,53,24.70
2007,07,10,10,54,24.70
2007,07,10,10,55,24.50
2007,07,10,10,56,24.30
2007,07,10,10,57,24.10
2007,07,10,10,58,24.10
2007,07,10,10,59,24.10
2007,07,10,11,00,24.10
2007,07,10,11,01,24.20
2007,07,10,11,02,24.20
2007,07,10,11,03,24.30
2007,07,10,11,04,24.30
2007,07,10,11,05,24.40
2007,07,10,11,06,24.40
2007,07,10,11,07,24.40
2007,07,10,11,08,24.40
2007,07,10,11,09,24.40
2007,07,10,11,10,24.40
2007,07,10,11,11,24.40
2007,07,10,11,12,24.50
2007,07,10,11,13,24.50
2007,07,10,11,14,24.60
2007,07,10,11,15,24.70
2007,07,10,11,16,24.90
2007,07,10,11,17,24.90
2007,07,10,11,18,25.00
2007,07,10,11,19,25.10
2007,07,10,11,20,25.10
2007,07,10,11,21,25.10
2007,07,10,11,22,25.10
2007,07,10,11,23,25.30
2007,07,10,11,24,25.40
2007,07,10,11,25,25.60
2007,07,10,11,26,25.70
2007,07,10,11,27,25.80
2007,07,10,11,28,25.90
2007,07,10,11,29,25.90
2007,07,10,11,30,26.00
2007,07,10,11,31,26.10
2007,07,10,11,32,26.20
2007,07,10,11,33,26.30
2007,07,10,11,34,26.50
2007,07,10,11,35,26.60
2007,07,10,11,36,26.60
2007,07,10,11,37,26.70
2007,07,10,11,38,26.60
2007,07,10,11,39,26.50
2007,07,10,11,40,26.20
2007,07,10,11,41,26.20
2007,07,10,11,42,26.20
2007,07,10,11,43,26.10
2007,07,10,11,44,26.10
2007,07,10,11,45,26.10
2007,07,10,11,46,26.00
2007,07,10,11,47,26.00
2007,07,10,11,48,26.00
2007,07,10,11,49,25.90
2007,07,10,11,50,25.70
2007,07,10,11,51,25.60
2007,07,10,11,52,25.60
2007,07,10,11,53,25.60
2007,07,10,11,54,25.80
2007,07,10,11,55,25.90
2007,07,10,11,56,26.00
2007,07,10,11,57,26.20
2007,07,10,11,58,26.40
2007,07,10,11,59,26.60
2007,07,10,12,00,26.80
2007,07,10,12,01,27.10
2007,07,10,12,02,27.20
2007,07,10,12,03,27.30
2007,07,10,12,04,27.30
2007,07,10,12,05,27.30
2007,07,10,12,06,27.30
2007,07,10,12,07,27.30
2007,07,10,12,08,27.40
2007,07,10,12,09,27.40
2007,07,10,12,10,27.40
2007,07,10,12,11,27.50
2007,07,10,12,12,27.60
2007,07,10,12,13,27.60
2007,07,10,12,14,27.60
2007,07,10,12,15,27.50
2007,07,10,12,16,27.40
2007,07,10,12,17,27.50
2007,07,10,12,18,27.40
2007,07,10,12,19,27.40
2007,07,10,12,20,27.50
2007,07,10,12,21,27.60
2007,07,10,12,22,27.60
2007,07,10,12,23,27.60
2007,07,10,12,24,27.60
2007,07,10,12,25,27.70
2007,07,10,12,26,27.70
2007,07,10,12,27,27.60
2007,07,10,12,28,27.60
2007,07,10,12,29,27.70
2007,07,10,12,30,27.70
2007,07,10,12,31,27.60
2007,07,10,12,32,27.60
2007,07,10,12,33,27.60
2007,07,10,12,34,27.50
2007,07,10,12,35,27.40
2007,07,10,12,36,27.40
2007,07,10,12,37,27.60
2007,07,10,12,38,27.60
2007,07,10,12,39,27.60
2007,07,10,12,40,27.40
2007,07,10,12,41,27.20
2007,07,10,12,42,26.90
2007,07,10,12,43,26.80
2007,07,10,12,44,26.70
2007,07,10,12,45,26.70
2007,07,10,12,46,26.70
2007,07,10,12,47,26.60
2007,07,10,12,48,26.60
2007,07,10,12,49,26.60
2007,07,10,12,50,26.40
2007,07,10,12,51,26.40
2007,07,10,12,52,26.40
2007,07,10,12,53,26.40
2007,07,10,12,54,26.30
2007,07,10,12,55,26.20
2007,07,10,12,56,26.20
2007,07,10,12,57,26.20
2007,07,10,12,58,26.20
2007,07,10,12,59,26.30
2007,07,10,13,00,26.40
2007,07,10,13,01,26.60
2007,07,10,13,02,26.80
2007,07,10,13,03,26.80
2007,07,10,13,04,27.00
2007,07,10,13,05,27.10
2007,07,10,13,06,26.90
2007,07,10,13,07,26.50
2007,07,10,13,08,26.10
2007,07,10,13,09,25.90
2007,07,10,13,10,25.90
2007,07,10,13,11,26.00
2007,07,10,13,12,26.00
2007,07,10,13,13,25.90
2007,07,10,13,14,25.90
2007,07,10,13,15,25.90
2007,07,10,13,16,26.00
2007,07,10,13,17,26.00
2007,07,10,13,18,26.20
2007,07,10,13,19,26.50
2007,07,10,13,20,26.70
2007,07,10,13,21,26.80
2007,07,10,13,22,27.00
2007,07,10,13,23,27.10
2007,07,10,13,24,27.30
2007,07,10,13,25,27.30
2007,07,10,13,26,27.30
2007,07,10,13,27,27.20
2007,07,10,13,28,27.20
2007,07,10,13,29,27.20
2007,07,10,13,30,27.20
2007,07,10,13,31,27.30
2007,07,10,13,32,27.40
2007,07,10,13,33,27.50
2007,07,10,13,34,27.60
2007,07,10,13,35,27.70
2007,07,10,13,36,27.70
2007,07,10,13,37,27.60
2007,07,10,13,38,27.50
2007,07,10,13,39,27.40
2007,07,10,13,40,27.30
2007,07,10,13,41,27.30
2007,07,10,13,42,27.30
2007,07,10,13,43,27.30
2007,07,10,13,44,27.50
2007,07,10,13,45,27.60
2007,07,10,13,46,27.60
2007,07,10,13,47,27.40
2007,07,10,13,48,27.60
2007,07,10,13,49,27.70
2007,07,10,13,50,27.70
2007,07,10,13,51,27.80
2007,07,10,13,52,27.80
2007,07,10,13,53,27.80
2007,07,10,13,54,27.70
2007,07,10,13,55,27.70
2007,07,10,13,56,27.80
2007,07,10,13,57,27.80
2007,07,10,13,58,27.80
2007,07,10,13,59,27.70
2007,07,10,14,00,27.70
2007,07,10,14,01,27.90
2007,07,10,14,02,28.00
2007,07,10,14,03,27.90
2007,07,10,14,04,27.80
2007,07,10,14,05,27.70
2007,07,10,14,06,27.60
2007,07,10,14,07,27.70
2007,07,10,14,08,27.80
2007,07,10,14,09,27.80
2007,07,10,14,10,27.60
2007,07,10,14,11,27.60
2007,07,10,14,12,27.70
2007,07,10,14,13,27.90
2007,07,10,14,14,27.90
2007,07,10,14,15,27.90
2007,07,10,14,16,28.00
2007,07,10,14,17,28.10
2007,07,10,14,18,28.20
2007,07,10,14,19,28.20
2007,07,10,14,20,28.20
2007,07,10,14,21,28.10
2007,07,10,14,22,28.10
2007,07,10,14,23,28.10
2007,07,10,14,24,28.00
2007,07,10,14,25,27.90
2007,07,10,14,26,27.60
2007,07,10,14,27,27.60
2007,07,10,14,28,27.60
2007,07,10,14,29,27.40
2007,07,10,14,30,27.30
2007,07,10,14,31,27.30
2007,07,10,14,32,27.30
2007,07,10,14,33,27.30
2007,07,10,14,34,27.40
2007,07,10,14,35,27.50
2007,07,10,14,36,27.60
2007,07,10,14,37,27.60
2007,07,10,14,38,27.70
2007,07,10,14,39,27.80
2007,07,10,14,40,28.00
2007,07,10,14,41,28.00
2007,07,10,14,42,28.00
2007,07,10,14,43,28.10
2007,07,10,14,44,28.20
2007,07,10,14,45,28.10
2007,07,10,14,46,27.90
2007,07,10,14,47,27.70
2007,07,10,14,48,27.50
2007,07,10,14,49,27.40
2007,07,10,14,50,27.30
2007,07,10,14,51,27.30
2007,07,10,14,52,27.30
2007,07,10,14,53,27.40
2007,07,10,14,54,27.50
2007,07,10,14,55,27.60
2007,07,10,14,56,27.60
2007,07,10,14,57,27.70
2007,07,10,14,58,27.80
2007,07,10,14,59,27.90
2007,07,10,15,00,27.90
2007,07,10,15,01,27.80
2007,07,10,15,02,27.70
2007,07,10,15,03,27.60
2007,07,10,15,04,27.50
2007,07,10,15,05,27.30
2007,07,10,15,06,27.40
2007,07,10,15,07,27.50
2007,07,10,15,08,27.60
2007,07,10,15,09,27.70
2007,07,10,15,10,27.90
2007,07,10,15,11,28.10
2007,07,10,15,12,28.20
2007,07,10,15,13,28.10
2007,07,10,15,14,28.00
2007,07,10,15,15,28.00
2007,07,10,15,16,28.00
2007,07,10,15,17,28.00
2007,07,10,15,18,28.00
2007,07,10,15,19,28.00
2007,07,10,15,20,28.00
2007,07,10,15,21,28.00
2007,07,10,15,22,28.00
2007,07,10,15,23,28.00
2007,07,10,15,24,28.00
2007,07,10,15,25,28.00
2007,07,10,15,26,27.90
2007,07,10,15,27,27.90
2007,07,10,15,28,27.90
2007,07,10,15,29,28.00
2007,07,10,15,30,28.00
2007,07,10,15,31,28.10
2007,07,10,15,32,28.10
2007,07,10,15,33,28.30
2007,07,10,15,34,28.30
2007,07,10,15,35,28.30
2007,07,10,15,36,28.20
2007,07,10,15,37,28.10
2007,07,10,15,38,28.10
2007,07,10,15,39,28.10
2007,07,10,15,40,28.00
2007,07,10,15,41,28.00
2007,07,10,15,42,28.10
2007,07,10,15,43,28.20
2007,07,10,15,44,28.30
2007,07,10,15,45,28.30
2007,07,10,15,46,28.30
2007,07,10,15,47,28.30
2007,07,10,15,48,28.30
2007,07,10,15,49,28.20
2007,07,10,15,50,28.20
2007,07,10,15,51,28.30
2007,07,10,15,52,28.30
2007,07,10,15,53,28.30
2007,07,10,15,54,28.30
2007,07,10,15,55,28.30
2007,07,10,15,56,28.30
2007,07,10,15,57,28.20
2007,07,10,15,58,28.10
2007,07,10,15,59,28.00
2007,07,10,16,00,28.10
2007,07,10,16,01,28.10
2007,07,10,16,02,28.10
2007,07,10,16,03,28.10
2007,07,10,16,04,28.20
2007,07,10,16,05,28.30
2007,07,10,16,06,28.40
2007,07,10,16,07,28.40
2007,07,10,16,08,28.40
2007,07,10,16,09,28.20
2007,07,10,16,10,28.10
2007,07,10,16,11,28.20
2007,07,10,16,12,28.20
2007,07,10,16,13,28.20
2007,07,10,16,14,28.20
2007,07,10,16,15,28.20
2007,07,10,16,16,28.30
2007,07,10,16,17,28.30
2007,07,10,16,18,28.20
2007,07,10,16,19,28.00
2007,07,10,16,20,27.90
2007,07,10,16,21,27.90
2007,07,10,16,22,27.90
2007,07,10,16,23,27.90
2007,07,10,16,24,27.90
2007,07,10,16,25,28.00
2007,07,10,16,26,28.00
2007,07,10,16,27,28.20
2007,07,10,16,28,28.40
2007,07,10,16,29,28.50
2007,07,10,16,30,28.60
2007,07,10,16,31,28.70
2007,07,10,16,32,28.70
2007,07,10,16,33,28.70
2007,07,10,16,34,28.70
2007,07,10,16,35,28.70
2007,07,10,16,36,28.80
2007,07,10,16,37,28.80
2007,07,10,16,38,28.80
2007,07,10,16,39,28.80
2007,07,10,16,40,28.80
2007,07,10,16,41,28.90
2007,07,10,16,42,28.90
2007,07,10,16,43,28.90
2007,07,10,16,44,28.90
2007,07,10,16,45,28.70
2007,07,10,16,46,28.60
2007,07,10,16,47,28.60
2007,07,10,16,48,28.60
2007,07,10,16,49,28.60
2007,07,10,16,50,28.60
2007,07,10,16,51,28.70
2007,07,10,16,52,28.80
2007,07,10,16,53,28.80
2007,07,10,16,54,28.80
2007,07,10,16,55,28.80
2007,07,10,16,56,28.80
2007,07,10,16,57,28.80
2007,07,10,16,58,28.70
2007,07,10,16,59,28.70
2007,07,10,17,00,28.70
2007,07,10,17,01,28.70
2007,07,10,17,02,28.70
2007,07,10,17,03,28.80
2007,07,10,17,04,28.80
2007,07,10,17,05,28.80
2007,07,10,17,06,28.80
2007,07,10,17,07,28.70
2007,07,10,17,08,28.70
2007,07,10,17,09,28.60
2007,07,10,17,10,28.60
2007,07,10,17,11,28.60
2007,07,10,17,12,28.70
2007,07,10,17,13,28.80
2007,07,10,17,14,28.90
2007,07,10,17,15,29.10
2007,07,10,17,16,29.20
2007,07,10,17,17,29.40
2007,07,10,17,18,29.60
2007,07,10,17,19,29.70